Weather History for Port Isabel, TX

Change the Weather History Date:

Wednesday, February 13, 2013

  Actual Average Record
Temperature  
Mean Temperature 62 °F -  
Max Temperature 66 °F - - ()
Min Temperature 57 °F - - ()
Degree Days  
Heating Degree Days 4    
Growing Degree Days 12 (Base 50)    
Moisture  
Dew Point 51 °F    
Average Humidity 67    
Maximum Humidity 84    
Minimum Humidity 50    
Precipitation  
Precipitation 0.00 in - - ()
Sea Level Pressure  
Sea Level Pressure 30.05 in    
Wind  
Wind Speed 13 mph (North)    
Max Wind Speed 22 mph    
Max Gust Speed 30 mph    
Visibility 9 miles    
Events      
T = Trace of Precipitation, MM = Missing Value Source: NWS Daily Summary

Daily Weather History Graph

Daily Weather History Graph

Search for Another Location

Airport:

Trip Planner

Search our weather history database for the weather conditions in past years. The results will help you decide how hot, cold, wet, or windy it might be!

Date:

Astronomy

Feb. 13, 2013 Rise Set
Actual Time 7:06 AM CST 6:21 PM CST
Civil Twilight 6:42 AM CST 6:44 PM CST
Nautical Twilight 6:15 AM CST 7:12 PM CST
Astronomical Twilight 5:48 AM CST 7:39 PM CST
Moon 9:03 AM CST (2/13) 9:55 PM CST (2/13)
Length of Visible Light 12h 02m
Length of Day
11h 15m
Waxing Crescent, 14% of the Moon is Illuminated
Feb 13
Waxing Crescent
Feb 17
First Quarter
Feb 25
Full
Mar 4
Last Quarter
Mar 11
New

Hourly Weather History & Observations

Time (CST) Temp. Dew Point Humidity Pressure Visibility Wind Dir Wind Speed Gust Speed Precip Events Conditions
12:53 AM 66.0 °F 60.1 °F 81% 29.96 in 10.0 mi North 10.4 mph - N/A   Clear
1:53 AM 66.0 °F 60.1 °F 81% 29.96 in 9.0 mi North 6.9 mph - N/A   Clear
2:53 AM 64.9 °F 60.1 °F 84% 29.96 in 9.0 mi NNW 10.4 mph - N/A   Clear
3:53 AM 64.9 °F 59.0 °F 81% 29.95 in 9.0 mi North 11.5 mph - N/A   Clear
4:53 AM 64.9 °F 57.9 °F 78% 29.98 in 9.0 mi North 10.4 mph - N/A   Mostly Cloudy
5:53 AM 66.0 °F 53.1 °F 63% 30.00 in 10.0 mi North 17.3 mph - N/A   Overcast
6:53 AM 64.0 °F 53.1 °F 67% 30.04 in 10.0 mi North 17.3 mph - N/A   Overcast
7:19 AM 64.4 °F 57.2 °F 77% 30.04 in 9.0 mi North 18.4 mph 27.6 mph N/A   Overcast
7:45 AM 62.6 °F 55.4 °F 77% 30.06 in 9.0 mi North 21.9 mph 29.9 mph N/A   Overcast
7:53 AM 63.0 °F 54.0 °F 72% 30.07 in 9.0 mi North 17.3 mph 27.6 mph N/A   Overcast
8:53 AM 63.0 °F 53.1 °F 70% 30.10 in 9.0 mi North 18.4 mph 26.5 mph N/A   Overcast
9:03 AM 62.6 °F 53.6 °F 72% 30.10 in 9.0 mi North 16.1 mph 24.2 mph N/A   Overcast
9:36 AM 62.6 °F 51.8 °F 68% 30.12 in 9.0 mi North 17.3 mph 25.3 mph N/A   Overcast
9:53 AM 63.0 °F 51.1 °F 65% 30.12 in 9.0 mi North 16.1 mph 24.2 mph N/A   Overcast
10:53 AM 63.0 °F 48.0 °F 58% 30.14 in 9.0 mi North 18.4 mph - N/A   Overcast
11:53 AM 64.0 °F 48.0 °F 56% 30.13 in 9.0 mi North 16.1 mph - N/A   Mostly Cloudy
12:53 PM 63.0 °F 45.0 °F 52% 30.10 in 9.0 mi NNE 18.4 mph 25.3 mph N/A   Clear
1:53 PM 62.1 °F 43.0 °F 50% 30.06 in 9.0 mi North 15.0 mph - N/A   Clear
2:53 PM 63.0 °F 45.0 °F 52% 30.05 in 9.0 mi NNE 18.4 mph 23.0 mph N/A   Clear
3:53 PM 61.0 °F 45.0 °F 56% 30.03 in 9.0 mi North 15.0 mph - N/A   Clear
4:53 PM 60.1 °F 45.0 °F 57% 30.04 in 9.0 mi NNE 12.7 mph - N/A   Clear
5:53 PM 59.0 °F 45.0 °F 60% 30.03 in 9.0 mi NNE 11.5 mph - N/A   Clear
6:53 PM 57.9 °F 44.1 °F 60% 30.04 in 10.0 mi NNE 8.1 mph - N/A   Clear
7:53 PM 57.9 °F 46.0 °F 65% 30.07 in 10.0 mi NNE 6.9 mph - N/A   Clear
8:53 PM 59.0 °F 46.9 °F 64% 30.09 in 10.0 mi NNE 3.5 mph - N/A   Clear
9:53 PM 59.0 °F 46.9 °F 64% 30.09 in 10.0 mi NE 6.9 mph - N/A   Clear
10:53 PM 57.9 °F 46.9 °F 67% 30.10 in 10.0 mi NE 4.6 mph - N/A   Clear
11:53 PM 57.0 °F 46.9 °F 69% 30.10 in 10.0 mi Calm Calm - N/A   Clear